| Date | Time | Temp. (oF) | Dew Point (oF) | Rel. Hum. (%) | Press. (in.) | Wind Dir. | Wind Speed (mph) | Hourly Rainfall (in.) |
|
|---|---|---|---|---|---|---|---|---|---|
| 1 | 03/08 | 00:00 | 54 | 35 | 50 | 29.28 | S | 7 | 0.00 |
| 2 | 03/07 | 23:00 | 56 | 37 | 50 | 29.32 | S | 11 | 0.00 |
| 3 | 03/07 | 22:00 | 56 | 37 | 50 | 29.35 | S | 2 | 0.00 |
| 4 | 03/07 | 21:00 | 58 | 37 | 46 | 29.37 | SSE | 2 | 0.00 |
| 5 | 03/07 | 20:00 | 58 | 36 | 44 | 29.39 | S | 4 | 0.00 |
| 6 | 03/07 | 19:00 | 58 | 36 | 44 | 29.40 | S | 5 | 0.00 |
| 7 | 03/07 | 18:00 | 60 | 36 | 41 | 29.40 | S | 6 | 0.00 |
| 8 | 03/07 | 17:00 | 64 | 32 | 31 | 29.40 | SSE | 7 | 0.00 |
| 9 | 03/07 | 16:00 | 63 | 36 | 38 | 29.42 | SSW | 12 | 0.00 |
| 10 | 03/07 | 15:00 | 67 | 31 | 27 | 29.43 | SSW | 13 | 0.00 |
| 11 | 03/07 | 14:00 | 66 | 32 | 29 | 29.49 | S | 12 | 0.00 |
| 12 | 03/07 | 13:00 | 64 | 34 | 33 | 29.55 | SSE | 9 | 0.00 |
| 13 | 03/07 | 12:00 | 63 | 37 | 39 | 29.60 | SE | 16 | 0.00 |
| 14 | 03/07 | 11:00 | 58 | 36 | 45 | 29.65 | S | 12 | 0.00 |
| 15 | 03/07 | 10:00 | 55 | 36 | 50 | 29.69 | SW | 8 | 0.00 |
| 16 | 03/07 | 09:00 | 50 | 35 | 58 | 29.72 | SSW | 9 | 0.00 |
| 17 | 03/07 | 08:00 | 44 | 34 | 70 | 29.73 | SSE | 4 | 0.00 |
| 18 | 03/07 | 006:59 | 2 | -4 | 74 | 37.00 | 07:00 | 3 | 8.00 |
| 19 | 03/07 | 06:00 | 35 | 32 | 90 | 29.74 | SW | 0 | 0.00 |
| 20 | 03/07 | 05:00 | 34 | 31 | 91 | 29.76 | SSW | 0 | 0.00 |
| 21 | 03/07 | 04:00 | 34 | 31 | 91 | 29.76 | N | 0 | 0.00 |
| 22 | 03/07 | 03:00 | 33 | 29 | 88 | 29.76 | WSW | 0 | 0.00 |
| 23 | 03/07 | 02:00 | 34 | 30 | 87 | 29.76 | WSW | 0 | 0.00 |
| 24 | 03/07 | 01:00 | 35 | 30 | 84 | 29.76 | WSW | 0 | 0.00 |